Qianfan Jigui 03-16

operational
NORAD ID: 62253 Int'l Des: 2024-232 Owner: YUANX Country: CN Constellation: qianfan
LEOCIRCULARPOLAR

About Qianfan Jigui 03-16

Description loading...

Live Position

Loading 3D Globe...

Upcoming Passes

Altitude History

Altitude vs Time

uPlot chart will show altitude changes over time

Two-Line Element Set

1 62253U 24232S 25312.80756133 .00000222 00000-0 32610-3 0 9998
2 62253 89.0040 44.5292 0013472 290.9810 68.9899 13.50971905 63360
Epoch: Nov 8, 2025 • Age: 34 hours

Current Status

Altitude 1071.5 km
Velocity 7.32 km/s
Sub-Earth Point 18.84°N, 83.61°W
Launch Date Dec 5, 2024
Age 0.9 years
Type internet

Technical Details

Classification Payload
Mass 267.00 kg
Dry Mass 267.00 kg
Total Mass 267.00 kg
Length 0.30 m
Diameter 3.00 m
Span 10.00 m
Shape Box+pan
Manufacturer SECM
Bus Type Qianfan
Phase Status In Orbit
Owner/State YUANX/CN

Large Constellations

Loading constellations...